Sheridan, NY

1:28 AM EDT on August 27, 2016 (GMT -0400)
Chautauqua County-Dunkirk

Weather History for KDKK - June, 2013

Change the Weather History Date:

Tuesday, June 25, 2013

  Actual Average Record
Temperature  
Mean Temperature 74 °F -  
Max Temperature 78 °F 77 °F 94 °F (1952)
Min Temperature 70 °F 58 °F 42 °F (1979)
Cooling Degree Days 9    
Growing Degree Days 24 (Base 50)    
Moisture  
Dew Point 65 °F    
Average Humidity 74    
Maximum Humidity 83    
Minimum Humidity 66    
Precipitation  
Precipitation 0.04 in - - ()
Sea Level Pressure  
Sea Level Pressure 29.90 in    
Wind  
Wind Speed 14 mph (SW)    
Max Wind Speed 21 mph    
Max Gust Speed 33 mph    
Visibility 10 miles    
Events Rain    
Averages and records for this station are not official NWS values.
T = Trace of Precipitation, MM = Missing Value Source: NWS Daily Summary

Daily Weather History Graph

Daily Weather History Graph

Search for Another Location

Airport or City:

Trip Planner

Search our weather history database for the weather conditions in past years. The results will help you decide how hot, cold, wet, or windy it might be!

Date:

Astronomy

Jun. 25, 2013 Rise Set
Actual Time 5:41 AM EDT 8:58 PM EDT
Civil Twilight 5:06 AM EDT 9:33 PM EDT
Nautical Twilight 4:21 AM EDT 10:18 PM EDT
Astronomical Twilight 3:25 AM EDT 11:13 PM EDT
Moon 10:38 PM EDT (6/25) 8:22 AM EDT (6/25)
Length of Visible Light 16h 27m
Length of Day
15h 17m
Waning Gibbous, 93% of the Moon is Illuminated
Jun 25
Waning Gibbous
Jun 30
Last Quarter
Jul 8
New
Jul 15
First Quarter
Jul 22
Full

Hourly Weather History & Observations

Time (EDT) Temp. Dew Point Humidity Pressure Visibility Wind Dir Wind Speed Gust Speed Precip Events Conditions
12:53 AM 73.9 °F 64.0 °F 71% 29.97 in 10.0 mi SSW 13.8 mph - N/A   Clear
1:53 AM 75.0 °F 64.9 °F 71% 29.94 in 10.0 mi SSW 15.0 mph - N/A   Clear
2:53 AM 73.9 °F 64.9 °F 73% 29.93 in 10.0 mi SSW 16.1 mph - N/A   Clear
3:53 AM 73.9 °F 64.9 °F 73% 29.91 in 10.0 mi SSW 17.3 mph - N/A   Clear
4:53 AM 73.9 °F 64.9 °F 73% 29.90 in 10.0 mi SSW 15.0 mph - N/A   Clear
5:53 AM 75.0 °F 64.9 °F 71% 29.91 in 10.0 mi South 10.4 mph 18.4 mph N/A   Clear
6:53 AM 73.9 °F 64.9 °F 73% 29.91 in 9.0 mi SSE 12.7 mph - N/A   Partly Cloudy
7:53 AM 75.0 °F 64.9 °F 71% 29.92 in 10.0 mi SW 13.8 mph 25.3 mph N/A   Overcast
8:53 AM 73.9 °F 64.0 °F 71% 29.94 in 10.0 mi WSW 19.6 mph 33.4 mph N/A   Scattered Clouds
9:53 AM 75.0 °F 64.9 °F 71% 29.95 in 10.0 mi WSW 18.4 mph 32.2 mph N/A   Mostly Cloudy
10:53 AM 72.0 °F 64.0 °F 76% 29.96 in 10.0 mi WSW 18.4 mph 28.8 mph N/A   Mostly Cloudy
11:27 AM 73.4 °F 64.4 °F 73% 29.96 in 10.0 mi WSW 20.7 mph 28.8 mph N/A   Mostly Cloudy
11:53 AM 75.9 °F 66.0 °F 71% 29.94 in 10.0 mi WSW 13.8 mph 27.6 mph N/A   Partly Cloudy
12:53 PM 78.1 °F 66.0 °F 66% 29.93 in 10.0 mi WSW 18.4 mph 26.5 mph N/A   Clear
1:53 PM 75.0 °F 64.9 °F 71% 29.90 in 10.0 mi SW 16.1 mph 27.6 mph N/A   Mostly Cloudy
2:53 PM 77.0 °F 66.0 °F 69% 29.91 in 10.0 mi SW 12.7 mph 19.6 mph N/A   Clear
3:53 PM 75.9 °F 64.0 °F 67% 29.91 in 10.0 mi WSW 15.0 mph 20.7 mph 0.00 in Rain Light Rain
4:53 PM 75.0 °F 66.0 °F 73% 29.89 in 9.0 mi WSW 11.5 mph 18.4 mph 0.00 in Rain Light Rain
5:21 PM 71.6 °F 66.2 °F 83% 29.89 in 2.5 mi WSW 9.2 mph 17.3 mph 0.04 in Rain Light Rain
5:28 PM 71.6 °F 66.2 °F 83% 29.88 in 10.0 mi West 12.7 mph 28.8 mph 0.04 in Rain Light Rain
5:53 PM 73.9 °F 68.0 °F 82% 29.84 in 10.0 mi SSW 16.1 mph - 0.04 in   Partly Cloudy
6:53 PM 73.0 °F 66.0 °F 79% 29.85 in 10.0 mi SW 5.8 mph - N/A   Clear
7:53 PM 73.0 °F 66.0 °F 79% 29.86 in 9.0 mi SW 9.2 mph - N/A   Clear
8:53 PM 71.1 °F 64.9 °F 81% 29.84 in 10.0 mi SW 4.6 mph - N/A   Clear
9:53 PM 70.0 °F 64.0 °F 81% 29.85 in 10.0 mi SSW 11.5 mph - N/A   Clear
10:53 PM 71.1 °F 64.0 °F 78% 29.87 in 10.0 mi South 17.3 mph 23.0 mph N/A   Clear
11:53 PM 70.0 °F 63.0 °F 78% 29.85 in 10.0 mi SSW 10.4 mph 21.9 mph N/A   Clear